{"data":{"norad_id":68460,"intl_designator":"2026-067AW","name":"COSMO","alt_names":[],"object_type":"PAYLOAD","status":"ACTIVE","operator":null,"country":"US","launch_date":"2026-03-30","launch_site_code":"AFWTR","launch_vehicle":null,"mission":null,"orbit_class":"UNKNOWN","rcs_meters":null,"size_class":null,"mass_kg":null,"dimensions":null,"purposes":[],"wikipedia_slug":null,"has_3d_model":false,"image_url":null,"decayed_at":null,"tle_current":{"epoch":"2026-09-20T04:37:21.402048Z","epoch_age_seconds":95769,"freshness":"FRESH","line1":"1 68460U 26067AW  26263.19260882  .00007757  00000+0  36684-3 0  9995","line2":"2 68460  97.4582 220.1870 0008035  96.2074 264.0076 15.19629188 26356","mean_motion":15.19629188,"eccentricity":0.0008035,"inclination_deg":97.4582,"raan_deg":220.187,"arg_perigee_deg":96.2074,"mean_anomaly_deg":264.0076,"bstar":0.00036684,"rev_number":2635,"period_min":94.75995929607,"perigee_km":501.42825399467,"apogee_km":512.49260556432,"semimajor_km":6885.0974297795,"source":"CELESTRAK","updated_at":"2026-09-20T09:00:24.211674Z"}}}